[[{"header":{"parameterUnit":"m.s-1","parameterCategory":1,"la1":30.2991,"la2":30.254,"lo1":-89.0895,"lo2":-89.0444,"dy":0.0017,"dx":0.0017,"nx":28,"ny":28,"refTime":"2023-11-03T09:00:00:Z","depth":0,"parameterNumber":2,"parameterNumberName":"U-component_of_WINDS"},"data":[0,0,0,0,0,0,0,0,0,0,0,0,0,0,0,0,0,0,0,0,0,0,0,0,0,0,0,0,0,0,0,0,0,0,0,0,0,0,0,0,0,0,0,0,0,0,0,0,0,0,0,0,0,0,0,0,0,0,-3.0675,-3.0676,0,-3.0751,-3.0752,-3.0753,-3.0646,-3.0642,-3.0638,-3.0635,-3.0712,-3.0718,-3.0723,0,0,0,0,0,0,0,0,0,0,0,0,0,-3.0436,-3.0441,-3.0675,-3.0676,-3.0677,-3.0751,-3.0752,-3.0753,-3.0646,-3.0642,-3.0637,-3.0633,-3.071,-3.0717,-3.0724,0,0,0,0,0,0,0,0,0,0,0,0,0,-3.0529,-3.0442,-3.0675,-3.0633,-3.063,-3.0751,-3.0752,-3.0754,-3.0647,-3.0642,-3.0636,-3.0631,-3.0708,-3.0716,-3.0725,-3.0891,0,0,-3.075,-3.0754,0,0,0,0,0,0,0,0,-3.0523,-3.0537,-3.0638,-3.0636,-3.0633,-3.0683,-3.0696,-3.08,-3.0649,-3.0641,-3.0634,-3.0628,-3.0707,-3.0715,-3.0742,-3.0894,-3.0898,-3.0751,-3.0756,-3.076,-3.0762,0,0,0,0,0,0,0,-3.0517,-3.0534,-3.0705,-3.064,-3.0636,-3.0609,-3.0616,-3.0715,-3.0705,-3.0641,-3.0633,-3.0644,-3.0704,-3.0734,-3.0743,-3.0899,-3.0751,-3.0758,-3.0763,-3.0767,-3.1191,-3.1197,0,0,0,0,0,0,-3.0516,-3.0529,-3.0703,-3.0707,-3.0563,-3.0618,-3.0626,-3.0673,-3.0704,-3.0703,-3.0649,-3.0639,-3.0723,-3.0733,-3.0745,-3.0942,-3.076,-3.0768,-3.0772,-3.1185,-3.1192,-3.1199,0,0,0,0,0,0,-3.0511,-3.0532,-3.07,-3.0616,-3.0635,-3.0629,-3.0682,-3.0677,-3.0707,-3.0709,-3.0707,-3.0681,-3.0719,-3.0734,-3.0855,-3.0943,-3.0771,-3.0779,-3.1177,-3.1187,-3.1195,-3.1337,0,0,0,0,0,0,-3.0505,-3.0531,-3.0595,-3.0618,-3.064,-3.0809,-3.0687,-3.0683,-3.0722,-3.0709,-3.0739,-3.0739,-3.0715,-3.0843,-3.0864,-3.0952,-3.0786,-3.1169,-3.1181,-3.1192,-3.1325,-3.135,-3.1372,0,0,0,0,0,-3.0497,-3.0632,-3.0599,-3.062,-3.072,-3.0815,-3.0827,-3.0798,-3.0729,-3.0793,-3.0794,-3.0738,-3.093,-3.0857,-3.0879,-3.0971,-3.1164,-3.1178,-3.1192,-3.1314,-3.1345,-3.1371,0,0,0,0,0,0,-3.0619,-3.0634,-3.0598,-3.0745,-3.0779,-3.0796,-3.0876,-3.0832,-3.0886,-3.0872,-3.0833,-3.0841,-3.0971,-3.0982,-3.0901,-3.1133,-3.1035,-3.1054,-3.1121,-3.1151,-3.1174,-3.1169,-3.0793,0,0,0,0,0,-3.0663,-3.0739,-3.0748,-3.0877,-3.0896,-3.0883,-3.0923,-3.0898,-3.0932,-3.0946,-3.0956,-3.0991,-3.1059,-3.1105,-3.1168,-3.1325,-3.133,-3.1399,-3.1423,-3.1442,-3.1459,-3.1543,-3.1574,-3.1245,-3.1245,-3.1244,0,0,-3.0755,-3.0772,-3.0823,-3.0902,-3.0925,-3.1005,-3.0896,-3.0985,-3.1043,-3.0959,-3.1075,-3.1084,-3.112,-3.1261,-3.1323,-3.1274,-3.1551,-3.146,-3.1475,-3.1482,-3.1561,-3.1592,-3.162,-3.1254,-3.1252,-3.1251,0,0,-3.0963,-3.0984,-3.1093,-3.1119,-3.1157,-3.1147,-3.1174,-3.1198,-3.12,-3.1316,-3.1254,-3.1323,-3.1441,-3.1469,-3.1499,-3.1718,-3.1667,-3.1739,-3.1863,-3.1945,-3.1971,-3.1994,-3.2072,-3.2101,-3.1756,-3.1756,-3.1756,0,-3.1072,-3.119,-3.1155,-3.1249,-3.1285,-3.1212,-3.1322,-3.1349,-3.1405,-3.1432,-3.1376,-3.1523,-3.1542,-3.1688,-3.1741,-3.1768,-3.1797,-3.1736,-3.197,-3.1993,-3.2014,-3.2088,-3.2117,-3.1765,-3.1764,-3.1763,-3.1762,0,-3.1323,-3.1405,-3.1489,-3.1546,-3.1591,-3.1693,-3.1673,-3.1723,-3.1693,-3.1689,-3.1807,-3.1828,-3.1894,-3.1926,-3.1897,-3.2068,-3.2036,-3.1977,-3.1878,-3.2054,-3.2123,-3.2151,-3.1777,-3.1774,-3.1771,-3.1769,0,0,-3.1612,-3.1647,-3.1678,-3.1703,-3.1738,-3.1801,-3.1899,-3.1963,-3.2007,-3.2047,-3.2129,-3.223,-3.2174,-3.2209,-3.2182,-3.2254,-3.2426,-3.2185,-3.2185,-3.223,-3.2615,-3.2661,-3.2694,-3.2392,-3.2398,-3.2402,-3.2612,0,-3.182,-3.199,-3.1961,-3.2125,-3.2201,-3.2132,-3.2217,-3.2248,-3.2246,-3.231,-3.2308,-3.2381,-3.2302,-3.2322,-3.239,-3.2391,-3.2503,-3.2375,-3.2467,-3.2471,-3.2462,-3.273,-3.2779,-3.2977,-3.2639,-3.2643,-3.2647,0,-3.2086,-3.2137,-3.2309,-3.2332,-3.2363,-3.244,-3.2496,-3.2558,-3.2591,-3.2585,-3.2623,-3.2583,-3.268,-3.2579,-3.2712,-3.2625,-3.2661,-3.2667,-3.2674,-3.2682,-3.2571,-3.2747,-3.3039,-3.3069,-3.2689,-3.2685,-3.2682,0,-3.228,-3.2391,-3.2509,-3.2532,-3.2561,-3.2617,-3.2632,-3.2659,-3.27,-3.2749,-3.2774,-3.2834,-3.2867,-3.2914,-3.2891,-3.2819,-3.3028,-3.2925,-3.3026,-3.3027,-3.3074,-3.3071,-3.3377,-3.3096,-3.3095,-3.3094,-3.3094,0,-3.2516,-3.2625,-3.2596,-3.2669,-3.2788,-3.2753,-3.2871,-3.2878,-3.2902,-3.2974,-3.2918,-3.2986,-3.2952,-3.3018,-3.3,-3.3113,-3.3128,-3.3125,-3.312,-3.3131,-3.3132,-3.3155,-3.3141,-3.3102,-3.3101,-3.3099,-3.3098,0,-3.2754,-3.2739,-3.2863,-3.2881,-3.2888,-3.2975,-3.2989,-3.3057,-3.305,-3.3142,-3.3162,-3.3152,-3.3227,-3.3208,-3.329,-3.3278,-3.342,-3.3396,-3.3409,-3.3404,-3.3506,-3.3497,-3.3838,-3.3881,-3.3571,-3.3574,-3.3577,0,-3.2906,-3.2988,-3.3015,-3.3059,-3.3078,-3.315,-3.3191,-3.3159,-3.3204,-3.3248,-3.331,-3.3379,-3.3433,-3.3556,-3.3556,-3.3617,-3.3595,-3.371,-3.3604,-3.3613,-3.3598,-3.3594,-3.3602,-3.3732,-3.3736,-3.3739,-3.3741,0,-3.3178,-3.3167,-3.3228,-3.3288,-3.3338,-3.3383,-3.3423,-3.3462,-3.3433,-3.3486,-3.3562,-3.3604,-3.3687,-3.3756,-3.3813,-3.3827,-3.378,-3.3774,-3.3801,-3.3814,-3.3818,-3.3818,-3.3468,-3.3767,-3.3764,-3.3762,-3.3761,-3.376,-3.3378,-3.3448,-3.3477,-3.3547,-3.3574,-3.3612,-3.3676,-3.3678,-3.3741,-3.3806,-3.3783,-3.387,-3.3899,-3.397,-3.3992,-3.4059,-3.4015,-3.4053,-3.4063,-3.4074,-3.4087,-3.3807,-3.4069,-3.4068,-3.4067,-3.4067,-3.4066,0,-3.3648,-3.3663,-3.3728,-3.3785,-3.3841,-3.3791,-3.3832,-3.3881,-3.3958,-3.399,-3.4044,-3.4131,-3.4198,-3.4203,-3.4266,-3.4319,-3.4299,-3.4337,-3.4333,-3.4337,-3.4122,-3.4093,-3.4352,-3.4352,-3.4352,-3.4352,-3.4352,-3.4352,-3.3795,-3.391,-3.3902,-3.4028,-3.4042,-3.4128,-3.4155,-3.419,-3.4215,-3.4315,-3.4371,-3.4373,-3.4394,-3.4458,-3.4517,-3.4517,-3.4543,-3.459,-3.4581,-3.438,-3.4352,-3.4325,-3.4298,-3.4595,-3.4596,-3.4791,-3.4792,-3.4794]},{"header":{"parameterUnit":"m.s-1","parameterCategory":1,"la1":30.2991,"la2":30.254,"lo1":-89.0895,"lo2":-89.0444,"dy":0.0017,"dx":0.0017,"nx":28,"ny":28,"refTime":"2023-11-03T09:00:00:Z","depth":0,"parameterNumber":3,"parameterNumberName":"V-component_of_WINDS"},"data":[0,0,0,0,0,0,0,0,0,0,0,0,0,0,0,0,0,0,0,0,0,0,0,0,0,0,0,0,0,0,0,0,0,0,0,0,0,0,0,0,0,0,0,0,0,0,0,0,0,0,0,0,0,0,0,0,0,0,-4.0134,-4.0134,0,-4.0153,-4.0153,-4.0154,-4.0107,-4.0105,-4.0104,-4.0102,-4.0121,-4.0123,-4.0125,0,0,0,0,0,0,0,0,0,0,0,0,0,-4.0055,-4.0057,-4.0134,-4.0134,-4.0135,-4.0153,-4.0153,-4.0154,-4.0107,-4.0105,-4.0103,-4.0101,-4.0121,-4.0123,-4.0125,0,0,0,0,0,0,0,0,0,0,0,0,0,-4.0083,-4.0057,-4.0134,-4.0113,-4.0112,-4.0153,-4.0153,-4.0154,-4.0107,-4.0105,-4.0103,-4.0101,-4.012,-4.0123,-4.0125,-4.0187,0,0,-4.0134,-4.0135,0,0,0,0,0,0,0,0,-4.0082,-4.0086,-4.0116,-4.0115,-4.0113,-4.0125,-4.0132,-4.0165,-4.0108,-4.0109,-4.0102,-4.01,-4.0124,-4.0127,-4.0135,-4.0188,-4.0189,-4.0134,-4.0136,-4.0137,-4.0138,0,0,0,0,0,0,0,-4.008,-4.0085,-4.0142,-4.0117,-4.0115,-4.0102,-4.0104,-4.0138,-4.0129,-4.0109,-4.0105,-4.0108,-4.0123,-4.0132,-4.0135,-4.0189,-4.0134,-4.0137,-4.0139,-4.014,-4.0291,-4.0293,0,0,0,0,0,0,-4.0081,-4.0084,-4.0141,-4.0142,-4.0092,-4.0106,-4.0107,-4.0124,-4.0128,-4.0127,-4.011,-4.0106,-4.0129,-4.0132,-4.0136,-4.0206,-4.0137,-4.014,-4.0142,-4.0289,-4.0292,-4.0294,0,0,0,0,0,0,-4.0079,-4.0086,-4.014,-4.0112,-4.0118,-4.0109,-4.0128,-4.0125,-4.0134,-4.0129,-4.0127,-4.0122,-4.0127,-4.0132,-4.0174,-4.0206,-4.0141,-4.0144,-4.0286,-4.029,-4.0293,-4.0349,0,0,0,0,0,0,-4.0077,-4.0086,-4.011,-4.0113,-4.012,-4.0179,-4.013,-4.0127,-4.014,-4.0134,-4.014,-4.0138,-4.0126,-4.017,-4.0177,-4.0209,-4.0146,-4.0283,-4.0288,-4.0292,-4.0345,-4.0354,-4.0363,0,0,0,0,0,-4.0074,-4.0126,-4.0112,-4.0119,-4.015,-4.0181,-4.0185,-4.017,-4.0142,-4.0166,-4.0162,-4.0138,-4.0202,-4.0175,-4.0182,-4.0216,-4.0281,-4.0286,-4.0292,-4.0341,-4.0353,-4.0363,0,0,0,0,0,0,-4.0128,-4.0126,-4.011,-4.0164,-4.0173,-4.0173,-4.0203,-4.0183,-4.02,-4.0194,-4.0174,-4.0176,-4.0221,-4.0223,-4.0193,-4.0274,-4.0237,-4.0244,-4.0272,-4.0283,-4.0292,-4.029,-4.0148,0,0,0,0,0,-4.0146,-4.0172,-4.0169,-4.0217,-4.0222,-4.0212,-4.0225,-4.0212,-4.022,-4.0224,-4.0224,-4.0232,-4.0254,-4.0269,-4.0289,-4.0345,-4.0344,-4.0371,-4.038,-4.0388,-4.0394,-4.0421,-4.0432,-4.0311,-4.0311,-4.0311,0,0,-4.0184,-4.0186,-4.0204,-4.0228,-4.0233,-4.0259,-4.0215,-4.0246,-4.0265,-4.0229,-4.0268,-4.0268,-4.0276,-4.0325,-4.0347,-4.0328,-4.0427,-4.0395,-4.0401,-4.0402,-4.0427,-4.0439,-4.0449,-4.0315,-4.0314,-4.0314,0,0,-4.0265,-4.0271,-4.031,-4.0315,-4.0324,-4.0316,-4.0325,-4.0328,-4.0326,-4.0366,-4.0338,-4.036,-4.0399,-4.0405,-4.0413,-4.0494,-4.0472,-4.0501,-4.0548,-4.0575,-4.0585,-4.0593,-4.062,-4.063,-4.0508,-4.0508,-4.0508,0,-4.0311,-4.035,-4.0332,-4.0364,-4.0374,-4.0342,-4.038,-4.0387,-4.0401,-4.0409,-4.0387,-4.0433,-4.0437,-4.0485,-4.0505,-4.0513,-4.0522,-4.05,-4.0585,-4.0593,-4.06,-4.0625,-4.0636,-4.0511,-4.0511,-4.051,-4.051,0,-4.0404,-4.0432,-4.0462,-4.0476,-4.049,-4.0525,-4.0511,-4.0527,-4.0512,-4.0507,-4.0546,-4.0549,-4.0567,-4.0578,-4.0565,-4.0624,-4.0612,-4.0588,-4.055,-4.0615,-4.0639,-4.0648,-4.0516,-4.0515,-4.0514,-4.0513,0,0,-4.0522,-4.0523,-4.0534,-4.0538,-4.0544,-4.0564,-4.0597,-4.0615,-4.0628,-4.0639,-4.0664,-4.0696,-4.0673,-4.0683,-4.067,-4.0693,-4.0754,-4.0666,-4.0666,-4.0681,-4.0817,-4.0834,-4.0845,-4.074,-4.0742,-4.0743,-4.0816,0,-4.06,-4.0655,-4.0639,-4.0694,-4.0718,-4.0686,-4.0714,-4.072,-4.0715,-4.0734,-4.0729,-4.0751,-4.072,-4.0725,-4.0747,-4.0742,-4.0781,-4.0737,-4.0762,-4.0763,-4.0759,-4.0858,-4.0876,-4.0944,-4.0825,-4.0827,-4.0828,0,-4.07,-4.0713,-4.077,-4.0769,-4.0778,-4.0803,-4.0816,-4.0835,-4.0841,-4.0835,-4.0845,-4.0826,-4.0856,-4.0819,-4.0859,-4.083,-4.0839,-4.0838,-4.084,-4.0841,-4.0798,-4.0859,-4.0966,-4.0975,-4.0842,-4.0841,-4.084,0,-4.0776,-4.0808,-4.0845,-4.0851,-4.0851,-4.0869,-4.087,-4.0873,-4.0884,-4.0895,-4.0902,-4.0918,-4.0926,-4.0938,-4.0923,-4.0897,-4.0965,-4.0927,-4.096,-4.0961,-4.0975,-4.0974,-4.1083,-4.0984,-4.0984,-4.0984,-4.0984,0,-4.0865,-4.0901,-4.0879,-4.0902,-4.0941,-4.0921,-4.0959,-4.0957,-4.0959,-4.098,-4.0955,-4.0975,-4.0955,-4.0974,-4.0963,-4.0997,-4.1001,-4.0997,-4.0993,-4.0998,-4.0998,-4.1003,-4.0997,-4.0987,-4.0986,-4.0985,-4.0985,0,-4.0957,-4.0944,-4.0982,-4.0979,-4.0978,-4.1007,-4.1003,-4.1023,-4.1016,-4.1043,-4.1048,-4.1036,-4.1056,-4.1043,-4.1064,-4.1056,-4.11,-4.1091,-4.1098,-4.1094,-4.1128,-4.1124,-4.1242,-4.1255,-4.115,-4.1151,-4.1152,0,-4.1013,-4.104,-4.1038,-4.1049,-4.1052,-4.1072,-4.1082,-4.1063,-4.1074,-4.1081,-4.11,-4.1118,-4.113,-4.1163,-4.1157,-4.1171,-4.1161,-4.1201,-4.1163,-4.1166,-4.1159,-4.1157,-4.1158,-4.1209,-4.121,-4.1211,-4.1212,0,-4.1114,-4.1106,-4.1121,-4.1134,-4.1146,-4.1156,-4.1163,-4.1174,-4.1155,-4.1169,-4.1188,-4.1198,-4.1218,-4.1235,-4.1246,-4.1247,-4.1226,-4.1224,-4.1232,-4.1236,-4.1238,-4.1235,-4.1116,-4.1221,-4.122,-4.1219,-4.1219,-4.1218,-4.1189,-4.1209,-4.121,-4.1228,-4.123,-4.1237,-4.1255,-4.1249,-4.1265,-4.1278,-4.1267,-4.1289,-4.1291,-4.1305,-4.1308,-4.1325,-4.1308,-4.1321,-4.1323,-4.1326,-4.133,-4.1237,-4.1327,-4.1327,-4.1327,-4.1326,-4.1326,0,-4.1286,-4.1285,-4.1301,-4.131,-4.1323,-4.1302,-4.1308,-4.132,-4.134,-4.1344,-4.1356,-4.1377,-4.1393,-4.1387,-4.14,-4.1415,-4.1405,-4.1419,-4.1417,-4.1417,-4.1345,-4.1335,-4.1426,-4.1426,-4.1426,-4.1426,-4.1426,-4.1426,-4.1339,-4.1371,-4.1363,-4.1396,-4.1394,-4.1415,-4.142,-4.1426,-4.1428,-4.1452,-4.1465,-4.146,-4.146,-4.1473,-4.1486,-4.1483,-4.1489,-4.1505,-4.1499,-4.1432,-4.1422,-4.1413,-4.1404,-4.1507,-4.1507,-4.1569,-4.157,-4.1571]}]]